[Iaude] MPEC L53: 2024 LX [a=2.15,e=0.44,i=10.3,H=22.4]

mpec at cfa.harvard.edu mpec at cfa.harvard.edu
Tue Jun 4 22:11:55 EDT 2024


M.P.E.C. 2024-L53                                  Issued 2024 June 5, 02:10 UT

     The Minor Planet Electronic Circulars contain information on unusual
         minor planets, routine data on comets and natural satellites,
         and occasional editorial announcements.  They are published
    on behalf of Division F of the International Astronomical Union by the
          Minor Planet Center, Smithsonian Astrophysical Observatory,
                          Cambridge, MA 02138, U.S.A.
			  
             Prepared using the Tamkin Foundation Computer Network

                              MPC at CFA.HARVARD.EDU
            URL https://www.minorplanetcenter.net/    ISSN 1523-6714

                                    2024 LX                                     


Observations:
     K24L00X  C2024 05 28.54401917 43 12.067+12 15 38.65         21.34GVEL053F51
     K24L00X  C2024 05 28.55518517 43 12.777+12 15 41.41         21.27GVEL053F51
     K24L00X  C2024 05 28.56624117 43 13.518+12 15 43.56         21.10GVEL053F51
     K24L00X*1C2024 06 03.36596817 50 25.278+12 24 43.20         21.34GVEL053G96
     K24L00X 1C2024 06 03.37119717 50 25.613+12 24 42.44         21.46GVEL053G96
     K24L00X 1C2024 06 03.37642117 50 25.933+12 24 42.44         21.19GVEL053G96
     K24L00X 1C2024 06 03.42864217 50 29.320+12 24 38.80         21.66GVEL053G96
     K24L00X 1C2024 06 03.43378117 50 29.600+12 24 37.70               VEL053G96
     K24L00X 1C2024 06 03.44407117 50 30.340+12 24 37.80         20.76GVEL053G96
     K24L00X 7C2024 06 04.06389517 51 17.514+12 23 46.09               VEL053Z84
     K24L00X KC2024 06 04.22389217 51 30.33 +12 23 27.6          22.3 GVEL053H21
     K24L00X KC2024 06 04.23367717 51 30.90 +12 23 26.1          22.1 GVEL053H21
     K24L00X KC2024 06 04.24392917 51 31.59 +12 23 25.2          22.4 GVEL053H21
     K24L00X KC2024 06 04.25781417 51 33.201+12 23 26.17         20.4 GVEL053I52
     K24L00X KC2024 06 04.26995517 51 34.012+12 23 26.74         20.1 GVEL053I52
     K24L00X 1C2024 06 04.96778 17 52 25.88 +12 21 45.0          21.8 VXEL053033
     K24L00X 1C2024 06 04.97112 17 52 26.10 +12 21 44.6          21.7 VXEL053033
     K24L00X 1C2024 06 04.97447 17 52 26.32 +12 21 44.3          21.6 VXEL053033
     K24L00X 1C2024 06 04.97782 17 52 26.54 +12 21 43.8          22.2 VXEL053033

Observer details:
033 Karl Schwarzschild Observatory, Tautenburg.  Observers C. Heogner, F.
    Ludwig, M. Hartmann, B. Stecklum.  Measurer B. Stecklum.  1.34-m f/3
    Schmidt + CCD.
F51 Pan-STARRS 1, Haleakala.  Observers J. Herman, T. Lowe, P. Minguez, A.
    Schultz, I. Smith.  Measurers K. Chambers, T. de Boer, J. Fairlamb, H.
    Gao, M. Huber, C.-C. Lin, E. Magnier, Y. Ramanjooloo, R. Wainscoat, R.
    Weryk.  1.8-m Ritchey-Chretien + CCD.
G96 Mt. Lemmon Survey.  Observer J. B. Fazekas.  Measurers T. Beuden, V. F.
    Carvajal, D. Fay, J. B. Fazekas, D. C. Fuls, A. R. Gibbs, A. D. Grauer, H.
    Groeller, J. K. Hogan, R. A. Kowalski, S. M. Larson, G. J. Leonard, D.
    Rankin, R. L. Seaman, F. C. Shelly, K. W. Wierzchos.  1.5-m reflector +
    10K CCD.
H21 Astronomical Research Observatory, Westfield.  Observer R. Holmes.
    Measurers T. Linder, R. Holmes, L. Horn.  0.81-m f/4.0 astrograph + CCD.
I52 Steward Observatory, Mt. Lemmon Station.  Observer T. Beuden.  Measurers
    D. Rankin, D. Parrott.  1.00-m f/2.0 prime focus + CCD + CCD.
Z84 Calar Alto-Schmidt.  Observers F. Ocana, R. Kresken, M. Micheli, L.
    Conversi.  Measurers F. Ocana, M. Micheli.  0.8-m f/3 Schmidt + CCD.

Orbital elements:
2024 LX                                                  Earth MOID = 0.2051 AU
Epoch 2024 Mar. 31.0 TT = JDT 2460400.5                 Veres                   
M 329.11699              (2000.0)            P               Q                  
n   0.31179384     Peri.  158.59135     +0.26440846     +0.95371179             
a   2.1538942      Node   126.46174     -0.90867898     +0.29612905             
e   0.4369491      Incl.   10.26037     -0.32309545     -0.05235844             
P   3.16           H   22.44          G   0.15           U   8                  
Residuals in seconds of arc
240528 F51  0.1-  0.1-    240603 G96  0.9-  0.4-    240604 I52 (0.9+  1.6+)
240528 F51  0.1-  0.2+    240603 G96  0.0   0.5+    240604 033  0.0   0.1+
240528 F51  0.3+  0.1-    240604 Z84  0.2-  0.8+    240604 033  0.1-  0.2+
240603 G96  0.0   0.3+    240604 H21 (0.8+  0.4+)   240604 033  0.1-  0.4+
240603 G96  0.0   0.2-    240604 H21  0.2-  0.2-    240604 033  0.2-  0.4+
240603 G96  0.2-  0.2+    240604 H21  0.1+  0.0
240603 G96  0.1-  0.3+    240604 I52  0.7+  0.1-

Ephemeris:
2024 LX                  a,e,i = 2.15, 0.44, 10                  q = 1.2128
Date    TT    R. A. (2000) Decl.     Delta      r    Elong.  Phase     V
2024 05 06    17 14 25.0 +08 32 45   0.4459  1.3688   136.9    30.2    22.7
...
2024 05 21    17 33 50.9 +11 27 09   0.3603  1.3075   139.6    30.1    22.1
...
2024 05 29    17 43 46.4 +12 17 26   0.3224  1.2799   140.9    30.0    21.8
...
2024 06 04    17 51 12.8 +12 24 04   0.2973  1.2619   141.9    29.7    21.6
2024 06 05    17 52 27.9 +12 21 59   0.2933  1.2592   142.2    29.6    21.6
2024 06 06    17 53 43.4 +12 18 53   0.2895  1.2565   142.4    29.5    21.5
...
2024 06 12    18 01 28.0 +11 37 10   0.2679  1.2420   143.9    28.8    21.3
...
2024 06 20    18 12 39.5 +09 31 08   0.2433  1.2269   146.8    27.0    21.0
...
2024 07 05    18 37 43.0 +01 24 48   0.2126  1.2132   155.3    20.5    20.5

M. P. C. Staff               (C) Copyright 2024 MPC           M.P.E.C. 2024-L53





More information about the Iaude mailing list